Flag for Germany Weather past 2 weeks in Lutherstadt Eisleben, Saxony-Anhalt, Germany

Now
69 °F

Partly sunny.


Feels Like: 69 °F
Forecast: 47 / 60 °F
Wind: 6 mph from Southwest

Location: Leipzig-Schkeuditz

Current Time: May 29, 2015 at 3:34:33 PM

Latest Report: May 29, 2015 at 3:00 PM


Visibility: 28 mi

Pressure: 29.80 "Hg

Humidity: 32%

Dew point: 38 °F

Location of Lutherstadt EislebenLocation

Historic Weather in Lutherstadt Eisleben — Graph

°F

Lutherstadt Eisleben temperature yesterday

Maximum temperature yesterday: 67 °F (at 4:00 PM)
Minimum temperature yesterday: 44 °F (at 2:00 AM)
Average temperature yesterday: 55 °F

Past Weeks' High & Low Weather Summary

 TemperatureHumidityPressure
High72 °F (May 18, 6:00 PM)95% (May 15, 6:00 AM)30.34 "Hg (May 15, 6:00 AM)
Low39 °F (May 15, 6:00 AM)26% (May 18, 6:00 PM)29.64 "Hg (May 19, 4:00 AM)
Average55 °F61%30.04 "Hg
* Reported May 14 2:00 PM — May 29 2:00 PM, Lutherstadt Eisleben, Weather by CustomWeather, © 2015

Note: Actual official high and low records may vary slightly from our data, if they occured in-between our weather recording intervals... More about our weather records

Advertising

Lutherstadt Eisleben weather history for previous 24 hours

 ConditionsComfort  
Time TempWeatherWind HumidityBarometerVisibility
2:00 PM
Fri, May 29
66 °FOvercast.6 mph44%29.83 "Hg25 mi
1:00 PM64 °FOvercast.3 mph51%29.86 "Hg22 mi
12:00 PM63 °FOvercast.3 mph52%29.89 "Hg19 mi
10:00 AM58 °FScattered clouds.1 mph60%29.94 "Hg19 mi
9:00 AM56 °FScattered clouds.1 mph64%29.95 "Hg19 mi
8:00 AM53 °FPartly sunny.1 mph82%29.96 "Hg9 mi
7:00 AM50 °FOvercast.2 mph92%29.95 "Hg11 mi
6:00 AM48 °FOvercast.2 mph92%29.96 "Hg19 mi
4:00 AM50 °FOvercast.1 mph88%29.95 "Hg28 mi
3:00 AM50 °FOvercast.2 mph87%29.96 "Hg28 mi
2:00 AM51 °FOvercast.2 mph87%29.96 "Hg31 mi
1:00 AM51 °FOvercast.1 mph86%29.95 "Hg31 mi
10:00 PM
Thu, May 28
55 °FSprinkles. Overcast.1 mph81%29.94 "Hg22 mi
9:00 PM58 °FCool.1 mph74%29.89 "HgN/A
8:00 PM60 °FLight rain. Overcast.5 mph62%29.90 "Hg25 mi
7:00 PM65 °FLight rain. Overcast.6 mph39%29.88 "Hg28 mi
6:00 PM67 °FOvercast.7 mph34%29.88 "Hg28 mi
4:00 PM67 °FPartly sunny.10 mph35%29.91 "Hg31 mi
3:00 PM67 °FPartly sunny.8 mph36%29.92 "Hg31 mi
Weather by CustomWeather, © 2015

See weather overviewHow to use our weather pages